UAL2491 KIAH-KSAN

Flight info

Callsign UAL2491
Flight time N/A
Altitude 32000
Route PITZZ5 CRGER EWM Q2 ITUCO GBN HOGGZ LUCKI1
Aircraft B38M/M-SDE1FGHILORVWXY/HB1

Departure

Time N/A
Airport George Bush Intercontinental Airport (KIAH)

Arrival

Time 2026-04-26 15:53
Airport San Diego International Airport (KSAN)
Time Latitude Longitude Altitude Speed Heading
2026-04-26 15:45 32.66402 -116.76162 6342 ft 269 kts 281°
2026-04-26 15:46 32.66646 -116.77368 6231 ft 267 kts 281°
2026-04-26 15:46 32.67075 -116.79485 5992 ft 262 kts 282°
2026-04-26 15:46 32.67215 -116.80163 5934 ft 260 kts 282°
2026-04-26 15:47 32.67916 -116.83551 5605 ft 251 kts 281°
2026-04-26 15:47 32.68672 -116.87569 5187 ft 248 kts 271°
2026-04-26 15:47 32.68323 -116.89547 5099 ft 247 kts 251°
2026-04-26 15:48 32.67761 -116.91490 4975 ft 250 kts 252°
2026-04-26 15:48 32.67333 -116.93472 4424 ft 249 kts 269°
2026-04-26 15:48 32.67486 -116.94818 4044 ft 250 kts 285°
2026-04-26 15:48 32.67990 -116.96791 3578 ft 249 kts 284°
2026-04-26 15:49 32.68455 -116.98756 3146 ft 245 kts 284°
2026-04-26 15:49 32.68906 -117.00631 3065 ft 225 kts 285°
2026-04-26 15:49 32.69321 -117.02352 2925 ft 211 kts 285°
2026-04-26 15:49 32.69716 -117.03983 2858 ft 202 kts 284°
2026-04-26 15:50 32.70106 -117.05590 2747 ft 201 kts 284°
2026-04-26 15:50 32.70486 -117.07150 2583 ft 192 kts 284°
2026-04-26 15:50 32.70840 -117.08605 2272 ft 174 kts 284°
2026-04-26 15:50 32.71162 -117.09920 1901 ft 159 kts 285°
2026-04-26 15:51 32.71469 -117.11159 1468 ft 150 kts 284°
2026-04-26 15:51 32.71766 -117.12296 1130 ft 140 kts 285°
2026-04-26 15:51 32.72043 -117.13362 932 ft 138 kts 285°
2026-04-26 15:51 32.72292 -117.14459 818 ft 135 kts 282°
2026-04-26 15:52 32.72521 -117.15554 577 ft 139 kts 284°
2026-04-26 15:52 32.72793 -117.16631 310 ft 134 kts 284°
2026-04-26 15:52 32.73053 -117.17721 113 ft 139 kts 285°
2026-04-26 15:52 32.73231 -117.18432 35 ft 126 kts 285°
2026-04-26 15:53 32.73368 -117.19138 29 ft 17 kts 221°
2026-04-26 15:53 32.73321 -117.19262 28 ft 19 kts 295°
2026-04-26 15:53 32.73352 -117.19380 28 ft 8 kts 285°
2026-04-26 15:53 32.73368 -117.19445 29 ft 9 kts 285°
2026-04-26 15:54 32.73387 -117.19522 30 ft 11 kts 287°
2026-04-26 15:54 32.73411 -117.19625 29 ft 15 kts 286°
2026-04-26 15:54 32.73444 -117.19755 29 ft 18 kts 286°
2026-04-26 15:54 32.73476 -117.19896 29 ft 16 kts 278°
2026-04-26 15:55 32.73398 -117.19971 29 ft 14 kts 194°
2026-04-26 15:55 32.73348 -117.19932 29 ft 8 kts 120°
2026-04-26 15:55 32.73339 -117.19912 28 ft 1 kts 117°
2026-04-26 15:55 32.73338 -117.19909 28 ft 1 kts 117°
2026-04-26 15:56 32.73336 -117.19905 28 ft 0 kts 117°